TimeCDT,TemperatureF,Dew PointF,Humidity,Sea Level PressureIn,VisibilityMPH,Wind Direction,Wind SpeedMPH,Gust SpeedMPH,PrecipitationIn,Events,Conditions,WindDirDegrees,DateUTC
12:15 AM,74.3,61.7,65,29.84,10.0,South,26.5,36.8,N/A,,Clear,170,2013-05-26 05:15:00
12:35 AM,73.4,61.9,67,29.85,10.0,South,25.3,31.1,N/A,,Clear,180,2013-05-26 05:35:00
12:55 AM,72.9,61.9,68,29.86,10.0,South,21.9,31.1,N/A,,Clear,180,2013-05-26 05:55:00
1:15 AM,71.8,61.9,71,29.86,10.0,South,21.9,29.9,N/A,,Clear,180,2013-05-26 06:15:00
1:35 AM,70.9,61.9,73,29.86,10.0,South,20.7,27.6,N/A,,Clear,180,2013-05-26 06:35:00
1:55 AM,70.5,61.9,74,29.86,10.0,South,18.4,25.3,N/A,,Clear,180,2013-05-26 06:55:00
2:15 AM,70.2,62.2,76,29.85,10.0,South,21.9,29.9,N/A,,Clear,190,2013-05-26 07:15:00
2:35 AM,69.8,62.6,78,29.85,10.0,South,20.7,27.6,N/A,,Clear,180,2013-05-26 07:35:00
2:55 AM,68.9,63.0,81,29.85,10.0,South,20.7,27.6,N/A,,Clear,190,2013-05-26 07:55:00
3:15 AM,68.9,63.7,83,29.84,10.0,South,23.0,28.8,N/A,,Clear,190,2013-05-26 08:15:00
3:35 AM,68.4,63.7,85,29.84,10.0,South,23.0,28.8,N/A,,Clear,190,2013-05-26 08:35:00
3:55 AM,68.0,63.5,85,29.83,10.0,South,17.3,27.6,N/A,,Clear,190,2013-05-26 08:55:00
4:15 AM,67.8,63.5,86,29.83,10.0,South,18.4,24.2,N/A,,Clear,180,2013-05-26 09:15:00
4:35 AM,67.1,63.1,87,29.83,10.0,South,17.3,23.0,N/A,,Clear,170,2013-05-26 09:35:00
4:55 AM,66.6,63.1,89,29.82,10.0,South,16.1,20.7,N/A,,Clear,170,2013-05-26 09:55:00
5:15 AM,66.2,63.1,90,29.83,10.0,South,12.7,-,N/A,,Clear,180,2013-05-26 10:15:00
5:35 AM,65.8,63.1,91,29.83,10.0,South,9.2,12.7,N/A,,Clear,190,2013-05-26 10:35:00
5:55 AM,65.3,62.8,92,29.83,10.0,SSW,4.6,-,N/A,,Clear,200,2013-05-26 10:55:00
6:15 AM,65.3,62.6,91,29.83,7.0,South,5.8,-,N/A,,Clear,180,2013-05-26 11:15:00
6:35 AM,64.8,62.6,93,29.83,7.0,South,4.6,-,N/A,,Clear,170,2013-05-26 11:35:00
6:55 AM,64.4,62.4,93,29.84,7.0,SSE,6.9,-,N/A,,Clear,160,2013-05-26 11:55:00
7:15 AM,65.1,62.8,92,29.84,7.0,East,4.6,-,N/A,,Clear,80,2013-05-26 12:15:00
7:35 AM,66.2,63.9,92,29.85,7.0,ESE,9.2,-,N/A,,Mostly Cloudy,120,2013-05-26 12:35:00
7:55 AM,66.9,63.9,90,29.86,7.0,SE,5.8,-,N/A,,Scattered Clouds,140,2013-05-26 12:55:00
8:15 AM,67.1,63.7,89,29.85,7.0,SE,4.6,-,N/A,,Clear,140,2013-05-26 13:15:00
8:35 AM,68.2,64.4,88,29.85,10.0,ESE,9.2,-,N/A,,Clear,120,2013-05-26 13:35:00
8:55 AM,68.5,64.4,87,29.85,7.0,SE,10.4,-,N/A,,Clear,130,2013-05-26 13:55:00
9:15 AM,69.3,64.9,86,29.85,10.0,SE,11.5,-,N/A,,Clear,130,2013-05-26 14:15:00
9:35 AM,69.6,65.3,86,29.85,10.0,ESE,9.2,-,N/A,,Clear,120,2013-05-26 14:35:00
9:55 AM,70.0,65.1,85,29.86,10.0,ESE,11.5,-,N/A,,Scattered Clouds,120,2013-05-26 14:55:00
10:15 AM,71.4,66.0,83,29.85,10.0,ESE,11.5,-,N/A,,Scattered Clouds,120,2013-05-26 15:15:00
10:35 AM,72.5,65.8,80,29.85,10.0,SE,13.8,18.4,N/A,,Scattered Clouds,130,2013-05-26 15:35:00
10:55 AM,73.6,66.7,79,29.85,10.0,ESE,12.7,-,N/A,,Clear,120,2013-05-26 15:55:00
11:15 AM,74.5,66.2,75,29.85,10.0,SE,12.7,-,N/A,,Clear,140,2013-05-26 16:15:00
11:35 AM,76.3,66.7,72,29.85,10.0,SE,12.7,18.4,N/A,,Clear,140,2013-05-26 16:35:00
11:55 AM,77.4,66.4,69,29.85,10.0,ESE,13.8,-,N/A,,Clear,110,2013-05-26 16:55:00
12:15 PM,77.0,66.4,70,29.85,10.0,ESE,15.0,19.6,N/A,,Scattered Clouds,120,2013-05-26 17:15:00
12:35 PM,78.8,66.4,66,29.85,10.0,SE,9.2,-,N/A,,Mostly Cloudy,130,2013-05-26 17:35:00
12:55 PM,79.9,66.2,63,29.84,10.0,ESE,16.1,20.7,N/A,,Mostly Cloudy,120,2013-05-26 17:55:00
1:15 PM,80.4,65.5,60,29.83,10.0,SE,15.0,19.6,N/A,,Mostly Cloudy,140,2013-05-26 18:15:00
1:35 PM,81.7,65.5,58,29.82,10.0,SE,11.5,-,N/A,,Scattered Clouds,130,2013-05-26 18:35:00
1:55 PM,82.6,66.2,58,29.81,10.0,SSE,17.3,23.0,N/A,,Scattered Clouds,150,2013-05-26 18:55:00
2:15 PM,82.4,67.5,60,29.80,10.0,SSE,17.3,26.5,N/A,,Scattered Clouds,160,2013-05-26 19:15:00
2:35 PM,82.8,66.6,58,29.79,10.0,SE,18.4,23.0,N/A,,Mostly Cloudy,140,2013-05-26 19:35:00
2:55 PM,83.3,65.5,55,29.80,10.0,South,15.0,24.2,N/A,,Mostly Cloudy,170,2013-05-26 19:55:00
3:15 PM,83.8,66.2,55,29.79,10.0,SSE,16.1,23.0,N/A,,Mostly Cloudy,160,2013-05-26 20:15:00
3:35 PM,84.0,66.9,56,29.79,10.0,SSE,15.0,23.0,N/A,,Mostly Cloudy,160,2013-05-26 20:35:00
3:55 PM,85.3,66.7,54,29.79,10.0,SE,15.0,18.4,N/A,,Mostly Cloudy,140,2013-05-26 20:55:00
4:15 PM,84.2,67.1,56,29.78,10.0,SE,9.2,18.4,N/A,,Mostly Cloudy,140,2013-05-26 21:15:00
4:35 PM,86.0,65.5,50,29.77,10.0,SE,12.7,18.4,N/A,,Mostly Cloudy,130,2013-05-26 21:35:00
4:55 PM,86.5,65.1,49,29.76,10.0,SE,16.1,-,N/A,,Scattered Clouds,140,2013-05-26 21:55:00
5:15 PM,86.7,64.6,48,29.75,10.0,SE,15.0,-,N/A,,Clear,140,2013-05-26 22:15:00
5:35 PM,88.2,64.8,46,29.74,10.0,SSE,16.1,24.2,N/A,,Scattered Clouds,150,2013-05-26 22:35:00
5:55 PM,87.1,63.1,45,29.74,10.0,SSE,16.1,26.5,N/A,,Scattered Clouds,150,2013-05-26 22:55:00
6:15 PM,88.2,63.1,43,29.73,10.0,SE,17.3,27.6,N/A,,Clear,140,2013-05-26 23:15:00
6:35 PM,87.6,63.3,44,29.73,10.0,SE,20.7,29.9,N/A,,Clear,140,2013-05-26 23:35:00
6:55 PM,86.9,64.4,47,29.73,10.0,SE,23.0,28.8,N/A,,Clear,140,2013-05-26 23:55:00
7:15 PM,86.0,64.6,49,29.72,10.0,SSE,23.0,28.8,N/A,,Clear,150,2013-05-27 00:15:00
7:35 PM,85.1,64.6,50,29.71,10.0,SSE,20.7,26.5,N/A,,Clear,150,2013-05-27 00:35:00
7:55 PM,84.4,64.0,50,29.71,10.0,SSE,24.2,31.1,N/A,,Clear,150,2013-05-27 00:55:00
8:15 PM,83.3,64.0,52,29.71,10.0,SSE,19.6,24.2,N/A,,Clear,150,2013-05-27 01:15:00
8:35 PM,82.4,64.2,54,29.71,10.0,SSE,18.4,25.3,N/A,,Clear,150,2013-05-27 01:35:00
8:55 PM,81.1,63.9,56,29.71,10.0,SSE,17.3,24.2,N/A,,Clear,150,2013-05-27 01:55:00
9:15 PM,79.7,64.0,59,29.71,10.0,SSE,19.6,24.2,N/A,,Clear,160,2013-05-27 02:15:00
9:35 PM,79.0,63.9,60,29.71,10.0,SSE,18.4,25.3,N/A,,Clear,160,2013-05-27 02:35:00
9:55 PM,78.6,64.4,62,29.72,10.0,SSE,20.7,24.2,N/A,,Clear,150,2013-05-27 02:55:00
10:15 PM,77.9,65.7,66,29.73,10.0,SSE,16.1,21.9,N/A,,Clear,160,2013-05-27 03:15:00
10:35 PM,77.2,66.2,69,29.74,10.0,SSE,16.1,24.2,N/A,,Clear,160,2013-05-27 03:35:00
10:55 PM,76.5,66.2,70,29.74,10.0,SSE,18.4,25.3,N/A,,Clear,160,2013-05-27 03:55:00
11:55 PM,74.7,66.7,76,29.73,10.0,South,13.8,18.4,N/A,,Clear,180,2013-05-27 04:55:00